Location: Jaite
(41.2884°N, 81.5737°W)
Time: 12:52:23
(UTC+00:00)

SL-08 R/B - Pass Details

Date: 15 November 2025
Orbit: 942 x 1007 km, 82.9° (Epoch: 11 December)

Event Time Altitude Azimuth Distance (km) Brightness Sun altitude
Rises 09:58:40 0° 350° (N) 3,635 7.4 -25.5°
Reaches altitude 10° 10:01:09 10° 349° (N) 2,692 6.7 -25.1°
Maximum altitude 10:07:18 76° 265° (W) 996 4.3 -23.9°
Drops below altitude 10° 10:13:30 10° 181° (S) 2,717 6.9 -22.8°
Sets 10:16:01 0° 180° (S) 3,670 7.6 -22.3°
